Location: Chevoux
(46.3801°N, 4.9476°E)
Time: 12:06:45
(UTC+00:00)

ATLAS 2AS CENTAUR R/B - Pass Details

Date: 28 January 2021
Orbit: 947 x 1265 km, 63.7° (Epoch: 13 February)

Event Time Altitude Azimuth Distance (km) Brightness Sun altitude
Rises 19:39:23 0° 313° (NW) 4,184 6.5 -31.1°
Reaches altitude 10° 19:42:50 10° 326° (NW) 3,182 5.6 -31.7°
Enters shadow 19:48:21 26° 12° (NNE) 2,145 4.2 -32.6°
